Location: Newark
(51.2625°N, 13.3939°E)
Time: 03:56:39
(UTC+00:00)

Vanguard 3 - Visible Passes

Search period start: 20 November 2019 00:00
Search period end: 30 November 2019 00:00
Orbit: 508 x 3263 km, 33.4° (Epoch: 18 November)

Date Brightness Start Highest point End Pass type
(mag) Time Alt. Az. Time Alt. Az. Time Alt. Az.
20 Nov 10.7 15:38:24 10° WSW 15:55:09 39° SSW 16:07:19 10° SE visible
20 Nov 10.6 17:55:29 10° W 18:07:14 24° SW 18:15:50 10° S visible
21 Nov 10.7 16:37:41 10° W 16:52:50 32° SSW 17:03:49 10° SSE visible
21 Nov 10.9 18:57:38 10° WSW 19:03:45 14° SW 19:08:55 10° SSW visible
22 Nov 10.9 15:20:40 10° WSW 15:37:44 39° SSW 15:50:47 10° SE visible
22 Nov 10.8 17:37:51 10° W 17:49:58 23° SW 17:59:09 10° S visible
23 Nov 10.9 16:19:59 10° W 16:35:27 32° SSW 16:47:10 10° SSE visible
23 Nov 11.1 18:40:36 10° WSW 18:46:29 13° SW 18:51:35 10° SSW visible
24 Nov 11.0 17:20:18 10° W 17:32:35 22° SW 17:42:15 10° S visible
25 Nov 11.1 16:02:24 10° W 16:17:58 31° SSW 16:30:21 10° SSE visible
25 Nov 11.3 18:23:54 10° WSW 18:29:05 12° SW 18:33:46 10° SSW visible
26 Nov 11.2 17:02:54 10° W 17:15:05 21° SW 17:25:07 10° S visible
27 Nov 11.2 15:44:58 10° W 16:00:23 30° SSW 16:13:19 10° SSE visible
27 Nov 11.5 18:07:54 10° WSW 18:11:36 11° SW 18:15:06 10° SW visible
28 Nov 11.4 16:45:42 10° W 16:57:31 20° SW 17:07:42 10° S visible
29 Nov 11.4 15:27:42 10° W 15:42:44 29° SSW 15:56:03 10° SSE visible
